| time (UTC) | temp F | wind direction | speed MPH | gust MPH | rain 1hr in | rain 24hr in | rain mn in | humidity % | barometer mb |
| 20260906151911 | 44 | 229 | 0.0 | 0.0 | 0.00 | 0.01 | 0.01 | 97 | 1015.1 |
| 20260906151407 | 44 | 229 | 0.0 | 0.0 | 0.00 | 0.01 | 0.01 | 97 | 1015.1 |
| 20260906150859 | 44 | 205 | 0.0 | 0.0 | 0.00 | 0.01 | 0.01 | 97 | 1015.1 |
| 20260906150353 | 44 | 205 | 0.0 | 0.0 | 0.00 | 0.01 | 0.01 | 97 | 1015.2 |
| 20260906145847 | 44 | 205 | 0.0 | 0.0 | 0.00 | 0.01 | 0.01 | 97 | 1015.2 |
| 20260906145343 | 44 | 205 | 0.0 | 0.0 | 0.00 | 0.01 | 0.01 | 97 | 1015.2 |
| 20260906144835 | 44 | 204 | 0.0 | 0.0 | 0.00 | 0.01 | 0.01 | 97 | 1015.2 |
| 20260906144329 | 44 | 204 | 0.0 | 0.0 | 0.00 | 0.01 | 0.01 | 96 | 1015.2 |
| 20260906143822 | 44 | 204 | 0.0 | 0.0 | 0.00 | 0.01 | 0.01 | 96 | 1015.2 |
| 20260906143319 | 44 | 204 | 0.0 | 1.0 | 0.00 | 0.01 | 0.01 | 96 | 1015.2 |
| 20260906142811 | 44 | 204 | 0.0 | 1.0 | 0.00 | 0.01 | 0.01 | 96 | 1015.3 |
| 20260906142306 | 44 | 204 | 0.0 | 0.0 | 0.00 | 0.01 | 0.01 | 96 | 1015.3 |
| 20260906141759 | 44 | 204 | 0.0 | 0.0 | 0.00 | 0.01 | 0.01 | 96 | 1015.3 |
| 20260906141255 | 44 | 194 | 0.0 | 0.0 | 0.00 | 0.01 | 0.01 | 96 | 1015.2 |
| 20260906141005 | 44 | 197 | 0.0 | 0.0 | 0.00 | 0.01 | 0.01 | 96 | 1015.1 |
| 20260906140241 | 44 | 192 | 0.0 | 0.0 | 0.00 | 0.01 | 0.01 | 96 | 1015.1 |
| 20260906135735 | 44 | 192 | 0.0 | 1.0 | 0.00 | 0.01 | 0.01 | 96 | 1015.1 |
| 20260906135231 | 44 | 192 | 0.0 | 2.0 | 0.00 | 0.01 | 0.01 | 96 | 1015.1 |
| 20260906134723 | 44 | 192 | 0.0 | 2.0 | 0.00 | 0.01 | 0.01 | 96 | 1015.1 |
| 20260906134216 | 44 | 214 | 0.0 | 0.0 | 0.00 | 0.01 | 0.01 | 96 | 1015.1 |
| 20260906133710 | 45 | 214 | 0.0 | 1.0 | 0.00 | 0.01 | 0.01 | 96 | 1015.1 |
| 20260906133207 | 45 | 214 | 0.0 | 2.0 | 0.00 | 0.01 | 0.01 | 96 | 1015.1 |
| 20260906132659 | 45 | 214 | 0.0 | 2.0 | 0.00 | 0.01 | 0.01 | 96 | 1015.1 |
| 20260906132152 | 45 | 215 | 0.0 | 1.0 | 0.00 | 0.01 | 0.01 | 96 | 1015.1 |
| 20260906131646 | 45 | 221 | 0.0 | 0.0 | 0.00 | 0.01 | 0.01 | 96 | 1015.1 |
| 20260906131144 | 45 | 221 | 0.0 | 0.0 | 0.00 | 0.01 | 0.01 | 96 | 1015.0 |
| 20260906130635 | 45 | 221 | 0.0 | 0.0 | 0.00 | 0.01 | 0.01 | 96 | 1015.1 |
| 20260906130129 | 45 | 221 | 0.0 | 0.0 | 0.00 | 0.01 | 0.01 | 96 | 1015.1 |
| 20260906125623 | 45 | 221 | 0.0 | 0.0 | 0.00 | 0.01 | 0.01 | 96 | 1015.1 |
| 20260906125119 | 45 | 221 | 0.0 | 0.0 | 0.00 | 0.01 | 0.01 | 96 | 1015.1 |
| 20260906124611 | 45 | 221 | 0.0 | 0.0 | 0.00 | 0.01 | 0.01 | 96 | 1015.1 |
| 20260906124105 | 45 | 221 | 0.0 | 0.0 | 0.00 | 0.01 | 0.01 | 96 | 1015.2 |
| 20260906123559 | 46 | 221 | 0.0 | 0.0 | 0.00 | 0.01 | 0.01 | 96 | 1015.1 |
| 20260906123314 | 46 | 221 | 0.0 | 0.0 | 0.00 | 0.01 | 0.01 | 96 | 1015.2 |
| 20260906122547 | 46 | 221 | 0.0 | 0.0 | 0.00 | 0.01 | 0.01 | 96 | 1015.2 |
| 20260906122040 | 46 | 221 | 0.0 | 0.0 | 0.00 | 0.01 | 0.01 | 96 | 1015.2 |
| 20260906121535 | 46 | 221 | 0.0 | 3.0 | 0.00 | 0.01 | 0.01 | 96 | 1015.2 |
| 20260906121031 | 46 | 221 | 1.0 | 3.0 | 0.01 | 0.01 | 0.01 | 96 | 1015.2 |
| 20260906120523 | 46 | 178 | 1.0 | 3.0 | 0.01 | 0.01 | 0.01 | 96 | 1015.2 |
| 20260906120017 | 46 | 190 | 0.0 | 3.0 | 0.01 | 0.01 | 0.01 | 96 | 1015.2 |
| 20260906115512 | 46 | 202 | 0.0 | 1.0 | 0.01 | 0.01 | 0.01 | 96 | 1015.2 |
| 20260906115006 | 46 | 204 | 0.0 | 1.0 | 0.01 | 0.01 | 0.01 | 96 | 1015.2 |
| 20260906114718 | 46 | 204 | 0.0 | 2.0 | 0.01 | 0.01 | 0.01 | 96 | 1015.3 |
| 20260906113953 | 46 | 207 | 1.0 | 2.0 | 0.01 | 0.01 | 0.01 | 96 | 1015.3 |
| 20260906113451 | 46 | 205 | 1.0 | 4.0 | 0.01 | 0.01 | 0.01 | 96 | 1015.2 |
| 20260906112950 | 46 | 205 | 1.0 | 4.0 | 0.01 | 0.01 | 0.01 | 96 | 1015.2 |
| 20260906112450 | 46 | 207 | 1.0 | 2.0 | 0.01 | 0.01 | 0.01 | 96 | 1015.2 |
| 20260906111950 | 46 | 200 | 1.0 | 3.0 | 0.01 | 0.01 | 0.01 | 96 | 1015.2 |
| 20260906111450 | 46 | 190 | 1.0 | 3.0 | 0.01 | 0.01 | 0.01 | 96 | 1015.3 |
| 20260906110948 | 46 | 182 | 0.0 | 3.0 | 0.00 | 0.00 | 0.00 | 96 | 1015.3 |
| 20260906110446 | 46 | 196 | 1.0 | 2.0 | 0.00 | 0.00 | 0.00 | 96 | 1015.3 |
| 20260906105946 | 46 | 196 | 0.0 | 2.0 | 0.00 | 0.00 | 0.00 | 96 | 1015.3 |
| 20260906105447 | 46 | 205 | 0.0 | 0.0 | 0.00 | 0.00 | 0.00 | 96 | 1015.3 |
| 20260906104950 | 46 | 205 | 0.0 | 0.0 | 0.00 | 0.00 | 0.00 | 96 | 1015.4 |
| 20260906104448 | 46 | 205 | 0.0 | 0.0 | 0.00 | 0.00 | 0.00 | 95 | 1015.5 |
| 20260906103948 | 46 | 205 | 0.0 | 1.0 | 0.00 | 0.00 | 0.00 | 95 | 1015.5 |
| 20260906103448 | 46 | 205 | 0.0 | 1.0 | 0.00 | 0.00 | 0.00 | 95 | 1015.5 |
| 20260906103220 | 46 | 205 | 0.0 | 0.0 | 0.00 | 0.00 | 0.00 | 96 | 1015.5 |
| 20260906102452 | 46 | 205 | 0.0 | 0.0 | 0.00 | 0.00 | 0.00 | 96 | 1015.5 |
| 20260906101951 | 46 | 205 | 0.0 | 0.0 | 0.00 | 0.00 | 0.00 | 96 | 1015.4 |
| 20260906101452 | 47 | 205 | 0.0 | 0.0 | 0.00 | 0.00 | 0.00 | 96 | 1015.5 |
| 20260906100949 | 47 | 205 | 0.0 | 0.0 | 0.00 | 0.00 | 0.00 | 95 | 1015.5 |
| 20260906100455 | 47 | 205 | 0.0 | 0.0 | 0.00 | 0.00 | 0.00 | 95 | 1015.4 |
| 20260906095952 | 47 | 205 | 0.0 | 1.0 | 0.00 | 0.00 | 0.00 | 95 | 1015.4 |
| 20260906095452 | 47 | 205 | 0.0 | 1.0 | 0.00 | 0.00 | 0.00 | 96 | 1015.4 |
| 20260906094952 | 47 | 205 | 0.0 | 1.0 | 0.00 | 0.00 | 0.00 | 96 | 1015.4 |
| 20260906094708 | 47 | 205 | 0.0 | 0.0 | 0.00 | 0.00 | 0.00 | 96 | 1015.4 |
| 20260906093947 | 47 | 205 | 0.0 | 0.0 | 0.00 | 0.00 | 0.00 | 95 | 1015.3 |
| 20260906093445 | 47 | 205 | 0.0 | 0.0 | 0.00 | 0.00 | 0.00 | 95 | 1015.3 |
| 20260906092946 | 47 | 205 | 0.0 | 0.0 | 0.00 | 0.00 | 0.00 | 95 | 1015.4 |
| 20260906092443 | 47 | 205 | 0.0 | 1.0 | 0.00 | 0.00 | 0.00 | 95 | 1015.3 |
| 20260906091944 | 47 | 205 | 0.0 | 1.0 | 0.00 | 0.00 | 0.00 | 96 | 1015.3 |
| 20260906091443 | 48 | 205 | 0.0 | 2.0 | 0.00 | 0.00 | 0.00 | 96 | 1015.4 |
| 20260906091205 | 48 | 205 | 0.0 | 2.0 | 0.00 | 0.00 | 0.00 | 96 | 1015.3 |
| 20260906090441 | 48 | 205 | 0.0 | 0.0 | 0.00 | 0.00 | 0.00 | 96 | 1015.3 |
| 20260906085938 | 48 | 205 | 0.0 | 0.0 | 0.00 | 0.00 | 0.00 | 96 | 1015.4 |
| 20260906085435 | 48 | 205 | 0.0 | 2.0 | 0.00 | 0.00 | 0.00 | 96 | 1015.4 |
| 20260906085202 | 48 | 205 | 0.0 | 3.0 | 0.00 | 0.00 | 0.00 | 96 | 1015.4 |
| 20260906085035 | 48 | 205 | 0.0 | 2.0 | 0.00 | 0.00 | 0.00 | 96 | 1015.4 |
| 20260906084434 | 48 | 205 | 0.0 | 3.0 | 0.00 | 0.00 | 0.00 | 96 | 1015.4 |
| 20260906083436 | 48 | 205 | 0.0 | 1.0 | 0.00 | 0.00 | 0.00 | 96 | 1015.4 |
| 20260906082930 | 48 | 205 | 0.0 | 1.0 | 0.00 | 0.00 | 0.00 | 96 | 1015.4 |
| 20260906082426 | 48 | 205 | 0.0 | 1.0 | 0.00 | 0.00 | 0.00 | 96 | 1015.4 |
| 20260906081920 | 48 | 205 | 0.0 | 3.0 | 0.00 | 0.00 | 0.00 | 96 | 1015.4 |
| 20260906081413 | 48 | 205 | 0.0 | 3.0 | 0.00 | 0.00 | 0.00 | 96 | 1015.4 |
| 20260906080907 | 48 | 205 | 1.0 | 4.0 | 0.00 | 0.00 | 0.00 | 96 | 1015.3 |
| 20260906080403 | 48 | 205 | 1.0 | 4.0 | 0.00 | 0.00 | 0.00 | 95 | 1015.4 |
| 20260906075851 | 48 | 210 | 1.0 | 3.0 | 0.00 | 0.00 | 0.00 | 95 | 1015.4 |
| 20260906075349 | 48 | 225 | 0.0 | 2.0 | 0.00 | 0.00 | 0.00 | 95 | 1015.5 |
| 20260906075102 | 48 | 217 | 1.0 | 3.0 | 0.00 | 0.00 | 0.00 | 95 | 1015.6 |
| 20260906074945 | 48 | 215 | 0.0 | 2.0 | 0.00 | 0.00 | 0.00 | 95 | 1015.5 |
| 20260906073831 | 48 | 217 | 1.0 | 3.0 | 0.00 | 0.00 | 0.00 | 95 | 1015.6 |
| 20260906073325 | 49 | 211 | 1.0 | 3.0 | 0.00 | 0.00 | 0.00 | 95 | 1015.6 |
| 20260906073044 | 49 | 209 | 0.0 | 2.0 | 0.00 | 0.00 | 0.00 | 95 | 1015.6 |
| 20260906072312 | 49 | 209 | 0.0 | 1.0 | 0.00 | 0.00 | 0.00 | 95 | 1015.7 |
| 20260906071809 | 49 | 209 | 1.0 | 3.0 | 0.00 | 0.00 | 0.00 | 95 | 1015.7 |
| 20260906071303 | 49 | 214 | 1.0 | 3.0 | 0.00 | 0.00 | 0.00 | 95 | 1015.8 |
| 20260906071027 | 49 | 212 | 1.0 | 2.0 | 0.00 | 0.00 | 0.00 | 95 | 1015.8 |
| 20260906070253 | 49 | 204 | 0.0 | 2.0 | 0.00 | 0.00 | 0.00 | 95 | 1015.8 |
| 20260906065750 | 49 | 205 | 0.0 | 2.0 | 0.00 | 0.01 | 0.01 | 95 | 1015.9 |
| 20260906065517 | 49 | 205 | 0.0 | 1.0 | 0.00 | 0.01 | 0.01 | 95 | 1015.9 |
| 20260906064751 | 49 | 205 | 0.0 | 2.0 | 0.00 | 0.01 | 0.01 | 95 | 1015.9 |
| 20260906064249 | 50 | 205 | 0.0 | 2.0 | 0.00 | 0.01 | 0.01 | 95 | 1015.9 |
| 20260906064007 | 50 | 200 | 0.0 | 2.0 | 0.00 | 0.01 | 0.01 | 95 | 1015.9 |
| 20260906063246 | 50 | 200 | 1.0 | 3.0 | 0.00 | 0.01 | 0.01 | 95 | 1015.9 |
| 20260906062742 | 50 | 200 | 1.0 | 3.0 | 0.00 | 0.01 | 0.01 | 95 | 1015.8 |
| 20260906062239 | 50 | 198 | 1.0 | 3.0 | 0.00 | 0.01 | 0.01 | 95 | 1015.9 |
| 20260906061741 | 50 | 197 | 1.0 | 3.0 | 0.00 | 0.01 | 0.01 | 95 | 1015.9 |
| 20260906061241 | 50 | 208 | 1.0 | 3.0 | 0.00 | 0.01 | 0.01 | 95 | 1015.9 |
| 20260906060739 | 50 | 196 | 1.0 | 4.0 | 0.00 | 0.01 | 0.01 | 95 | 1015.9 |
| 20260906060241 | 50 | 212 | 2.0 | 4.0 | 0.00 | 0.01 | 0.01 | 95 | 1015.9 |
| 20260906055740 | 51 | 175 | 1.0 | 4.0 | 0.00 | 0.01 | 0.01 | 95 | 1015.9 |
| 20260906055455 | 51 | 206 | 1.0 | 3.0 | 0.00 | 0.01 | 0.01 | 94 | 1016.0 |
| 20260906054735 | 51 | 182 | 1.0 | 3.0 | 0.00 | 0.01 | 0.01 | 94 | 1016.0 |
| 20260906054249 | 51 | 203 | 1.0 | 3.0 | 0.00 | 0.01 | 0.01 | 94 | 1016.1 |
| 20260906053747 | 51 | 202 | 0.0 | 2.0 | 0.00 | 0.01 | 0.01 | 94 | 1016.2 |
| 20260906053240 | 51 | 202 | 0.0 | 2.0 | 0.00 | 0.01 | 0.01 | 94 | 1016.2 |
| 20260906052732 | 51 | 202 | 1.0 | 2.0 | 0.00 | 0.01 | 0.01 | 94 | 1016.2 |
| 20260906052233 | 51 | 202 | 1.0 | 2.0 | 0.00 | 0.01 | 0.01 | 93 | 1016.3 |
| 20260906051729 | 51 | 190 | 1.0 | 4.0 | 0.00 | 0.01 | 0.01 | 93 | 1016.4 |
| 20260906051228 | 52 | 196 | 1.0 | 4.0 | 0.00 | 0.01 | 0.01 | 93 | 1016.4 |
| 20260906050729 | 52 | 210 | 0.0 | 2.0 | 0.00 | 0.01 | 0.01 | 93 | 1016.4 |
| 20260906050231 | 52 | 210 | 0.0 | 2.0 | 0.00 | 0.01 | 0.01 | 93 | 1016.4 |
| 20260906045726 | 52 | 210 | 0.0 | 2.0 | 0.00 | 0.01 | 0.01 | 93 | 1016.3 |
| 20260906045226 | 52 | 210 | 1.0 | 2.0 | 0.00 | 0.01 | 0.01 | 93 | 1016.4 |
| 20260906044726 | 53 | 213 | 1.0 | 2.0 | 0.00 | 0.01 | 0.01 | 93 | 1016.3 |
| 20260906044227 | 53 | 222 | 0.0 | 2.0 | 0.00 | 0.01 | 0.01 | 92 | 1016.4 |
| 20260906043726 | 53 | 222 | 0.0 | 1.0 | 0.00 | 0.01 | 0.01 | 92 | 1016.4 |
| 20260906043228 | 53 | 222 | 0.0 | 1.0 | 0.00 | 0.01 | 0.01 | 92 | 1016.4 |
| 20260906042725 | 53 | 222 | 0.0 | 2.0 | 0.00 | 0.01 | 0.01 | 92 | 1016.5 |
| 20260906042227 | 54 | 222 | 0.0 | 3.0 | 0.00 | 0.01 | 0.01 | 91 | 1016.5 |
| 20260906041725 | 54 | 227 | 0.0 | 3.0 | 0.00 | 0.01 | 0.01 | 91 | 1016.5 |
| 20260906041226 | 54 | 223 | 0.0 | 2.0 | 0.00 | 0.01 | 0.01 | 91 | 1016.5 |
| 20260906040723 | 54 | 223 | 1.0 | 4.0 | 0.00 | 0.01 | 0.01 | 91 | 1016.4 |
| 20260906040222 | 55 | 215 | 1.0 | 4.0 | 0.00 | 0.01 | 0.01 | 90 | 1016.4 |
| 20260906035721 | 55 | 227 | 0.0 | 2.0 | 0.00 | 0.01 | 0.01 | 90 | 1016.4 |
| 20260906035220 | 55 | 227 | 0.0 | 2.0 | 0.00 | 0.01 | 0.01 | 90 | 1016.4 |
| 20260906034720 | 55 | 227 | 0.0 | 1.0 | 0.00 | 0.01 | 0.01 | 90 | 1016.4 |
| 20260906034214 | 56 | 227 | 0.0 | 1.0 | 0.00 | 0.01 | 0.01 | 89 | 1016.4 |
| 20260906033708 | 56 | 227 | 0.0 | 2.0 | 0.00 | 0.01 | 0.01 | 89 | 1016.3 |
| 20260906033203 | 56 | 227 | 0.0 | 2.0 | 0.00 | 0.01 | 0.01 | 89 | 1016.2 |
| 20260906032656 | 56 | 227 | 0.0 | 1.0 | 0.00 | 0.01 | 0.01 | 89 | 1016.2 |
| 20260906032150 | 57 | 227 | 0.0 | 2.0 | 0.00 | 0.01 | 0.01 | 89 | 1016.0 |
| 20260906031644 | 57 | 227 | 1.0 | 4.0 | 0.00 | 0.01 | 0.01 | 89 | 1016.0 |
| 20260906031138 | 57 | 232 | 0.0 | 4.0 | 0.00 | 0.01 | 0.01 | 88 | 1015.9 |
| 20260906030633 | 58 | 224 | 0.0 | 0.0 | 0.00 | 0.01 | 0.01 | 88 | 1015.9 |
| 20260906030127 | 58 | 224 | 0.0 | 2.0 | 0.00 | 0.01 | 0.01 | 87 | 1015.8 |
| 20260906025620 | 59 | 224 | 0.0 | 2.0 | 0.00 | 0.01 | 0.01 | 86 | 1015.8 |
| 20260906025113 | 59 | 224 | 0.0 | 0.0 | 0.00 | 0.01 | 0.01 | 86 | 1015.7 |
| 20260906024608 | 59 | 224 | 0.0 | 0.0 | 0.00 | 0.01 | 0.01 | 86 | 1015.7 |
| 20260906024103 | 60 | 224 | 0.0 | 2.0 | 0.00 | 0.01 | 0.01 | 85 | 1015.6 |
| 20260906023825 | 60 | 224 | 0.0 | 2.0 | 0.00 | 0.01 | 0.01 | 85 | 1015.7 |
| 20260906023050 | 60 | 224 | 0.0 | 2.0 | 0.00 | 0.01 | 0.01 | 84 | 1015.6 |
| 20260906022544 | 61 | 224 | 0.0 | 2.0 | 0.00 | 0.01 | 0.01 | 84 | 1015.6 |
| 20260906022039 | 62 | 224 | 0.0 | 2.0 | 0.00 | 0.01 | 0.01 | 83 | 1015.5 |
| 20260906021531 | 62 | 217 | 0.0 | 1.0 | 0.00 | 0.01 | 0.01 | 83 | 1015.5 |
| 20260906021026 | 62 | 218 | 0.0 | 1.0 | 0.00 | 0.01 | 0.01 | 82 | 1015.5 |
| 20260906020521 | 63 | 213 | 0.0 | 1.0 | 0.00 | 0.01 | 0.01 | 82 | 1015.5 |
| 20260906020015 | 64 | 213 | 0.0 | 1.0 | 0.00 | 0.01 | 0.01 | 81 | 1015.5 |
| 20260906015508 | 64 | 213 | 0.0 | 2.0 | 0.00 | 0.01 | 0.01 | 80 | 1015.4 |
| 20260906015233 | 64 | 218 | 1.0 | 3.0 | 0.00 | 0.01 | 0.01 | 79 | 1015.4 |
| 20260906014455 | 65 | 218 | 1.0 | 4.0 | 0.00 | 0.01 | 0.01 | 80 | 1015.4 |
| 20260906014222 | 65 | 225 | 1.0 | 4.0 | 0.00 | 0.01 | 0.01 | 78 | 1015.3 |
| 20260906013714 | 65 | 213 | 1.0 | 4.0 | 0.00 | 0.01 | 0.01 | 79 | 1015.2 |
| 20260906012938 | 66 | 223 | 1.0 | 4.0 | 0.00 | 0.01 | 0.01 | 76 | 1015.2 |
| 20260906012432 | 66 | 226 | 1.0 | 3.0 | 0.00 | 0.01 | 0.01 | 75 | 1015.1 |
| 20260906011932 | 66 | 209 | 1.0 | 2.0 | 0.00 | 0.01 | 0.01 | 73 | 1015.1 |
| 20260906011647 | 66 | 229 | 1.0 | 2.0 | 0.00 | 0.01 | 0.01 | 81 | 1015.0 |
| 20260906010929 | 66 | 241 | 0.0 | 2.0 | 0.00 | 0.01 | 0.01 | 78 | 1015.0 |
| 20260906010438 | 67 | 55 | 0.0 | 1.0 | 0.00 | 0.01 | 0.01 | 79 | 1014.9 |
| 20260906010148 | 67 | 55 | 0.0 | 1.0 | 0.00 | 0.01 | 0.01 | 77 | 1015.0 |
| 20260906005645 | 67 | 53 | 0.0 | 1.0 | 0.00 | 0.01 | 0.01 | 74 | 1015.0 |
| 20260906004927 | 67 | 200 | 0.0 | 1.0 | 0.00 | 0.01 | 0.01 | 76 | 1015.0 |
| 20260906004643 | 67 | 200 | 0.0 | 2.0 | 0.00 | 0.01 | 0.01 | 74 | 1014.9 |
| 20260906003927 | 67 | 200 | 0.0 | 3.0 | 0.00 | 0.01 | 0.01 | 76 | 1015.0 |
| 20260906003426 | 68 | 202 | 1.0 | 3.0 | 0.00 | 0.01 | 0.01 | 74 | 1015.0 |
| 20260906002925 | 68 | 340 | 0.0 | 2.0 | 0.00 | 0.01 | 0.01 | 70 | 1014.9 |
| 20260906002426 | 68 | 35 | 1.0 | 3.0 | 0.00 | 0.01 | 0.01 | 70 | 1014.9 |
| 20260906002207 | 68 | 355 | 1.0 | 4.0 | 0.00 | 0.02 | 0.01 | 61 | 1014.8 |
| 20260906001926 | 68 | 219 | 1.0 | 4.0 | 0.00 | 0.01 | 0.01 | 71 | 1014.9 |
| 20260906001150 | 68 | 350 | 1.0 | 4.0 | 0.00 | 0.03 | 0.01 | 64 | 1014.8 |
| 20260906000426 | 68 | 196 | 1.0 | 4.0 | 0.00 | 0.04 | 0.01 | 67 | 1014.8 |
| 20260905235926 | 68 | 90 | 1.0 | 5.0 | 0.00 | 0.05 | 0.01 | 62 | 1014.7 |
| 20260905235421 | 68 | 9 | 1.0 | 5.0 | 0.00 | 0.06 | 0.01 | 64 | 1014.7 |
| 20260905234920 | 68 | 108 | 1.0 | 3.0 | 0.00 | 0.07 | 0.01 | 62 | 1014.8 |
| 20260905234418 | 68 | 29 | 1.0 | 4.0 | 0.00 | 0.07 | 0.01 | 63 | 1014.8 |
| 20260905233916 | 68 | 343 | 1.0 | 4.0 | 0.00 | 0.08 | 0.01 | 65 | 1014.8 |
| 20260905233634 | 68 | 332 | 0.0 | 3.0 | 0.00 | 0.09 | 0.01 | 64 | 1014.8 |
| 20260905233407 | 68 | 337 | 0.0 | 3.0 | 0.00 | 0.10 | 0.01 | 66 | 1014.8 |
| 20260905232642 | 68 | 304 | 0.0 | 3.0 | 0.00 | 0.11 | 0.01 | 67 | 1014.8 |
| 20260905231912 | 68 | 273 | 0.0 | 3.0 | 0.00 | 0.11 | 0.01 | 69 | 1014.9 |
| 20260905231410 | 68 | 339 | 0.0 | 3.0 | 0.00 | 0.11 | 0.01 | 67 | 1015.0 |
| 20260905230914 | 68 | 177 | 1.0 | 4.0 | 0.00 | 0.11 | 0.01 | 69 | 1015.0 |
| 20260905230413 | 68 | 184 | 1.0 | 4.0 | 0.00 | 0.11 | 0.01 | 65 | 1015.1 |
| 20260905225909 | 68 | 14 | 1.0 | 4.0 | 0.00 | 0.11 | 0.01 | 66 | 1015.1 |
| 20260905225410 | 69 | 344 | 0.0 | 4.0 | 0.00 | 0.11 | 0.01 | 67 | 1015.1 |
| 20260905224909 | 68 | 5 | 0.0 | 3.0 | 0.00 | 0.11 | 0.01 | 66 | 1015.0 |
| 20260905224410 | 68 | 249 | 0.0 | 2.0 | 0.00 | 0.11 | 0.01 | 68 | 1015.1 |
| 20260905224327 | 67 | 323 | 0.0 | 1.0 | 0.00 | 0.11 | 0.01 | 71 | 1015.3 |
| 20260905224304 | 67 | 351 | 0.0 | 2.0 | 0.00 | 0.11 | 0.01 | 71 | 1015.2 |
| 20260905222911 | 67 | 246 | 0.0 | 0.0 | 0.00 | 0.11 | 0.01 | 74 | 1015.4 |
| 20260905222408 | 67 | 246 | 0.0 | 0.0 | 0.00 | 0.11 | 0.01 | 74 | 1015.5 |
| 20260905221906 | 67 | 246 | 0.0 | 0.0 | 0.00 | 0.11 | 0.01 | 75 | 1015.6 |
| 20260905221407 | 67 | 246 | 0.0 | 0.0 | 0.00 | 0.11 | 0.01 | 74 | 1015.6 |
| 20260905220908 | 67 | 234 | 0.0 | 0.0 | 0.00 | 0.11 | 0.01 | 75 | 1015.7 |
| 20260905220408 | 67 | 229 | 0.0 | 0.0 | 0.00 | 0.11 | 0.01 | 73 | 1015.6 |
| 20260905215907 | 67 | 229 | 0.0 | 2.0 | 0.00 | 0.11 | 0.01 | 75 | 1015.7 |
| 20260905215407 | 67 | 228 | 0.0 | 2.0 | 0.00 | 0.11 | 0.01 | 76 | 1015.8 |
| 20260905215136 | 67 | 213 | 0.0 | 2.0 | 0.00 | 0.11 | 0.01 | 72 | 1015.8 |
| 20260905215104 | 67 | 355 | 0.0 | 2.0 | 0.00 | 0.11 | 0.01 | 71 | 1015.8 |
| 20260905213911 | 67 | 127 | 0.0 | 1.0 | 0.00 | 0.11 | 0.01 | 70 | 1015.9 |
| 20260905213905 | 67 | 248 | 0.0 | 1.0 | 0.00 | 0.11 | 0.01 | 71 | 1015.8 |
| 20260905212907 | 67 | 100 | 0.0 | 3.0 | 0.00 | 0.11 | 0.01 | 67 | 1015.9 |
| 20260905212408 | 67 | 90 | 0.0 | 3.0 | 0.00 | 0.11 | 0.01 | 67 | 1015.9 |
| 20260905211907 | 68 | 178 | 0.0 | 1.0 | 0.00 | 0.11 | 0.01 | 69 | 1015.9 |
| 20260905211407 | 67 | 142 | 0.0 | 4.0 | 0.00 | 0.12 | 0.01 | 69 | 1015.8 |
| 20260905210907 | 68 | 159 | 0.0 | 4.0 | 0.00 | 0.12 | 0.01 | 68 | 1015.9 |
| 20260905210407 | 68 | 224 | 0.0 | 2.0 | 0.00 | 0.12 | 0.01 | 71 | 1015.9 |
| 20260905205906 | 68 | 214 | 0.0 | 2.0 | 0.00 | 0.13 | 0.01 | 70 | 1015.9 |
| 20260905205404 | 68 | 355 | 0.0 | 1.0 | 0.00 | 0.13 | 0.01 | 70 | 1015.9 |
| 20260905205125 | 68 | 294 | 0.0 | 1.0 | 0.00 | 0.13 | 0.01 | 70 | 1015.9 |
| 20260905204408 | 68 | 294 | 0.0 | 1.0 | 0.00 | 0.13 | 0.01 | 69 | 1015.9 |
| 20260905203902 | 67 | 294 | 0.0 | 1.0 | 0.00 | 0.13 | 0.01 | 70 | 1015.8 |
| 20260905203401 | 67 | 297 | 0.0 | 2.0 | 0.00 | 0.13 | 0.01 | 72 | 1015.8 |
| 20260905202900 | 67 | 71 | 0.0 | 2.0 | 0.00 | 0.13 | 0.01 | 71 | 1015.8 |
| 20260905202358 | 67 | 279 | 0.0 | 2.0 | 0.00 | 0.13 | 0.01 | 73 | 1015.8 |
| 20260905201856 | 67 | 277 | 0.0 | 2.0 | 0.00 | 0.13 | 0.01 | 73 | 1015.8 |
| 20260905201357 | 66 | 267 | 0.0 | 4.0 | 0.00 | 0.13 | 0.01 | 71 | 1015.8 |
| 20260905200858 | 66 | 170 | 1.0 | 4.0 | 0.00 | 0.13 | 0.01 | 75 | 1015.9 |
| 20260905200356 | 66 | 355 | 1.0 | 3.0 | 0.00 | 0.13 | 0.01 | 75 | 1015.9 |
| 20260905195855 | 66 | 350 | 0.0 | 3.0 | 0.00 | 0.13 | 0.01 | 74 | 1015.9 |
| 20260905195355 | 66 | 0 | 0.0 | 2.0 | 0.00 | 0.13 | 0.01 | 75 | 1015.8 |
| 20260905194852 | 66 | 342 | 0.0 | 2.0 | 0.00 | 0.13 | 0.01 | 77 | 1015.9 |
| 20260905194400 | 66 | 9 | 0.0 | 2.0 | 0.00 | 0.13 | 0.01 | 76 | 1015.9 |
| 20260905193902 | 66 | 5 | 0.0 | 2.0 | 0.00 | 0.13 | 0.01 | 74 | 1015.9 |
| 20260905193401 | 66 | 5 | 1.0 | 6.0 | 0.00 | 0.13 | 0.01 | 76 | 1016.0 |
| 20260905192855 | 65 | 16 | 1.0 | 6.0 | 0.00 | 0.13 | 0.01 | 78 | 1016.1 |
| 20260905192606 | 65 | 5 | 0.0 | 2.0 | 0.00 | 0.13 | 0.01 | 78 | 1016.1 |
| 20260905192105 | 65 | 320 | 0.0 | 2.0 | 0.00 | 0.13 | 0.01 | 77 | 1016.1 |
| 20260905191558 | 65 | 305 | 0.0 | 1.0 | 0.00 | 0.13 | 0.01 | 78 | 1016.1 |
| 20260905190830 | 65 | 67 | 1.0 | 5.0 | 0.00 | 0.13 | 0.01 | 78 | 1016.2 |
| 20260905190552 | 65 | 67 | 1.0 | 5.0 | 0.00 | 0.13 | 0.01 | 76 | 1016.2 |
| 20260905185819 | 65 | 341 | 1.0 | 5.0 | 0.00 | 0.13 | 0.01 | 76 | 1016.3 |
| 20260905185313 | 65 | 50 | 1.0 | 5.0 | 0.00 | 0.13 | 0.01 | 78 | 1016.3 |
| 20260905184807 | 64 | 273 | 0.0 | 3.0 | 0.00 | 0.13 | 0.01 | 79 | 1016.3 |
| 20260905184300 | 64 | 321 | 0.0 | 3.0 | 0.00 | 0.13 | 0.01 | 84 | 1016.3 |
| 20260905183751 | 63 | 82 | 0.0 | 2.0 | 0.00 | 0.13 | 0.01 | 84 | 1016.4 |
| 20260905183249 | 62 | 55 | 0.0 | 2.0 | 0.00 | 0.13 | 0.01 | 85 | 1016.4 |
| 20260905183002 | 61 | 15 | 0.0 | 2.0 | 0.00 | 0.13 | 0.01 | 87 | 1016.5 |
| 20260905182240 | 61 | 44 | 0.0 | 1.0 | 0.00 | 0.13 | 0.01 | 89 | 1016.6 |
| 20260905181731 | 60 | 45 | 1.0 | 3.0 | 0.00 | 0.13 | 0.01 | 87 | 1016.7 |
| 20260905181225 | 59 | 19 | 1.0 | 3.0 | 0.00 | 0.13 | 0.01 | 89 | 1016.6 |
| 20260905180719 | 58 | 5 | 0.0 | 2.0 | 0.00 | 0.13 | 0.01 | 93 | 1016.7 |
| 20260905180216 | 57 | 333 | 0.0 | 3.0 | 0.00 | 0.13 | 0.01 | 98 | 1016.7 |
| 20260905175707 | 56 | 333 | 0.0 | 3.0 | 0.00 | 0.13 | 0.01 | 98 | 1016.7 |
| 20260905175157 | 56 | 71 | 1.0 | 3.0 | 0.00 | 0.13 | 0.01 | 98 | 1016.7 |
| 20260905174922 | 55 | 108 | 1.0 | 3.0 | 0.00 | 0.13 | 0.01 | 98 | 1016.7 |
| 20260905174147 | 55 | 49 | 0.0 | 3.0 | 0.00 | 0.13 | 0.01 | 98 | 1016.7 |
| 20260905173639 | 55 | 319 | 0.0 | 1.0 | 0.00 | 0.13 | 0.01 | 98 | 1016.7 |
| 20260905173137 | 55 | 312 | 0.0 | 1.0 | 0.00 | 0.13 | 0.01 | 98 | 1016.7 |
| 20260905172630 | 54 | 312 | 0.0 | 0.0 | 0.00 | 0.13 | 0.01 | 98 | 1016.7 |
| 20260905172125 | 54 | 312 | 0.0 | 0.0 | 0.00 | 0.13 | 0.01 | 98 | 1016.8 |
| 20260905171617 | 53 | 312 | 0.0 | 0.0 | 0.00 | 0.13 | 0.01 | 98 | 1016.7 |
| 20260905171113 | 53 | 312 | 0.0 | 0.0 | 0.00 | 0.13 | 0.01 | 98 | 1016.7 |
| 20260905170606 | 53 | 312 | 0.0 | 0.0 | 0.00 | 0.13 | 0.01 | 98 | 1016.7 |
| 20260905170101 | 53 | 312 | 0.0 | 0.0 | 0.00 | 0.13 | 0.01 | 98 | 1016.8 |
| 20260905165553 | 52 | 312 | 0.0 | 0.0 | 0.00 | 0.13 | 0.01 | 98 | 1016.8 |
| 20260905165049 | 52 | 312 | 0.0 | 1.0 | 0.00 | 0.13 | 0.01 | 98 | 1016.8 |
| 20260905164543 | 52 | 312 | 0.0 | 2.0 | 0.00 | 0.13 | 0.01 | 98 | 1016.8 |
| 20260905164037 | 51 | 312 | 0.0 | 2.0 | 0.00 | 0.13 | 0.01 | 98 | 1016.9 |
| 20260905163533 | 51 | 298 | 0.0 | 1.0 | 0.00 | 0.13 | 0.01 | 98 | 1016.8 |
| 20260905163508 | 51 | 298 | 0.0 | 1.0 | 0.00 | 0.13 | 0.01 | 98 | 1016.8 |
| 20260905162515 | 51 | 298 | 0.0 | 0.0 | 0.00 | 0.13 | 0.01 | 98 | 1016.9 |
| 20260905162013 | 50 | 298 | 0.0 | 0.0 | 0.00 | 0.13 | 0.01 | 98 | 1016.9 |
| 20260905161001 | 50 | 298 | 0.0 | 1.0 | 0.00 | 0.13 | 0.01 | 98 | 1016.9 |
| 20260905160455 | 49 | 298 | 0.0 | 1.0 | 0.00 | 0.13 | 0.01 | 98 | 1016.9 |
| 20260905155949 | 49 | 254 | 0.0 | 0.0 | 0.00 | 0.13 | 0.01 | 98 | 1016.9 |
| 20260905155445 | 49 | 254 | 0.0 | 0.0 | 0.00 | 0.13 | 0.01 | 98 | 1016.9 |
| 20260905154937 | 49 | 254 | 0.0 | 0.0 | 0.00 | 0.13 | 0.01 | 98 | 1017.0 |
| 20260905154431 | 48 | 254 | 0.0 | 0.0 | 0.00 | 0.13 | 0.01 | 98 | 1016.9 |
| 20260905153930 | 48 | 254 | 0.0 | 0.0 | 0.00 | 0.13 | 0.01 | 98 | 1016.9 |
| 20260905153429 | 48 | 254 | 0.0 | 0.0 | 0.00 | 0.13 | 0.01 | 97 | 1016.9 |
| 20260905152926 | 48 | 254 | 0.0 | 0.0 | 0.00 | 0.13 | 0.01 | 97 | 1016.9 |
| 20260905152428 | 48 | 254 | 0.0 | 0.0 | 0.00 | 0.13 | 0.01 | 98 | 1016.8 |